TimeEST,TemperatureF,Dew PointF,Humidity,Sea Level PressureIn,VisibilityMPH,Wind Direction,Wind SpeedMPH,Gust SpeedMPH,PrecipitationIn,Events,Conditions,WindDirDegrees,DateUTC
12:51 AM,45.0,39.0,80,29.86,10.0,NNW,9.2,17.3,N/A,,Overcast,330,2012-11-08 05:51:00
1:51 AM,45.0,37.9,76,29.86,10.0,NW,11.5,19.6,N/A,,Overcast,320,2012-11-08 06:51:00
2:13 AM,44.6,37.4,76,29.86,10.0,NW,11.5,18.4,N/A,,Overcast,320,2012-11-08 07:13:00
2:51 AM,45.0,37.9,76,29.87,10.0,NW,10.4,20.7,N/A,,Overcast,320,2012-11-08 07:51:00
3:09 AM,44.6,37.4,76,29.87,10.0,NW,10.4,-,N/A,,Overcast,320,2012-11-08 08:09:00
3:51 AM,44.1,37.9,79,29.88,10.0,NW,11.5,19.6,N/A,,Overcast,320,2012-11-08 08:51:00
4:51 AM,44.1,37.0,76,29.90,10.0,NW,9.2,-,N/A,,Overcast,320,2012-11-08 09:51:00
5:51 AM,42.1,36.0,79,29.91,10.0,NW,11.5,19.6,N/A,,Mostly Cloudy,320,2012-11-08 10:51:00
6:51 AM,42.1,37.0,82,29.92,10.0,NW,11.5,18.4,N/A,,Mostly Cloudy,320,2012-11-08 11:51:00
7:19 AM,42.8,37.4,81,29.93,10.0,NNW,10.4,21.9,N/A,,Scattered Clouds,330,2012-11-08 12:19:00
7:51 AM,44.1,36.0,73,29.95,10.0,NNW,11.5,19.6,N/A,,Scattered Clouds,330,2012-11-08 12:51:00
8:51 AM,44.1,36.0,73,29.96,10.0,NW,9.2,19.6,N/A,,Overcast,320,2012-11-08 13:51:00
9:51 AM,46.9,37.9,71,29.97,10.0,NNW,9.2,20.7,N/A,,Overcast,330,2012-11-08 14:51:00
10:51 AM,48.9,37.9,66,29.98,10.0,NW,10.4,17.3,N/A,,Clear,320,2012-11-08 15:51:00
11:51 AM,48.9,36.0,61,29.95,10.0,NW,9.2,-,N/A,,Mostly Cloudy,320,2012-11-08 16:51:00
12:51 PM,51.1,34.0,52,29.93,10.0,WNW,10.4,18.4,N/A,,Clear,290,2012-11-08 17:51:00
1:51 PM,54.0,35.1,49,29.92,10.0,WNW,13.8,20.7,N/A,,Clear,300,2012-11-08 18:51:00
2:51 PM,54.0,39.9,59,29.92,10.0,WNW,10.4,18.4,N/A,,Clear,290,2012-11-08 19:51:00
3:51 PM,54.0,33.1,45,29.93,10.0,WNW,10.4,17.3,N/A,,Clear,300,2012-11-08 20:51:00
4:51 PM,53.1,37.0,55,29.94,10.0,WNW,10.4,-,N/A,,Clear,300,2012-11-08 21:51:00
5:51 PM,51.1,39.9,66,29.97,10.0,WNW,8.1,-,N/A,,Clear,300,2012-11-08 22:51:00
6:51 PM,51.1,36.0,56,29.99,10.0,WNW,6.9,-,N/A,,Clear,300,2012-11-08 23:51:00
7:51 PM,51.1,37.0,59,30.00,10.0,WNW,6.9,-,N/A,,Clear,300,2012-11-09 00:51:00
8:51 PM,50.0,39.0,66,30.01,10.0,WNW,6.9,-,N/A,,Clear,290,2012-11-09 01:51:00
9:51 PM,50.0,37.9,63,30.02,10.0,WNW,8.1,-,N/A,,Clear,290,2012-11-09 02:51:00
10:51 PM,51.1,36.0,56,30.03,10.0,NW,11.5,19.6,N/A,,Clear,320,2012-11-09 03:51:00
11:51 PM,50.0,33.1,52,30.04,10.0,NNW,9.2,17.3,N/A,,Clear,330,2012-11-09 04:51:00